Simultaneous Nadir Overpasses (SNOs) Predictions

Prediction of SNOs between AQUA and LANDSAT-8 Satellite Orbit:

Table of predicted SNOs for the next 14.0 days since TLE Epoch: 5/11/2024
Index Date (AQUA) Time (AQUA) Lat,Lon (AQUA) SZA (AQUA ) Date (LANDSAT-8) Time (LANDSAT-8) Lat,Lon (LANDSAT-8) SZA (LANDSAT-8 ) Distance(km) Time Diff (sec)
1 05/11/2024 14:59:54 72.89, -41.22 54.74 05/11/2024 14:58:50 72.88, -44.16 54.68 96.10 64
2 05/11/2024 15:49:20 -73.15, 125.91 125.02 05/11/2024 15:48:12 -73.17, 124.06 125.03 59.55 68
3 05/11/2024 16:38:45 73.23, -66.61 55.05 05/11/2024 16:37:36 73.25, -68.15 55.04 49.21 69
4 05/11/2024 17:28:11 -73.49, 100.50 124.71 05/11/2024 17:26:59 -73.49, 99.99 124.73 16.30 72
5 05/11/2024 18:17:35 73.53, -91.91 55.32 05/11/2024 18:16:23 73.56, -92.21 55.35 10.25 72
6 05/11/2024 19:06:58 -73.63, 75.53 124.60 05/11/2024 19:05:49 -73.64, 75.60 124.58 2.90 69
7 05/11/2024 19:56:21 73.61,-116.78 55.38 05/11/2024 19:55:15 73.61,-116.82 55.38 1.55 66
8 05/11/2024 20:45:43 -73.66, 50.78 124.58 05/11/2024 20:44:42 -73.64, 50.87 124.60 3.50 61
9 05/11/2024 21:35:06 73.64,-141.53 55.39 05/11/2024 21:34:08 73.61,-141.54 55.36 2.84 58
10 05/11/2024 22:24:27 -73.64, 26.14 124.62 05/11/2024 22:23:35 -73.64, 26.15 124.62 0.83 52
11 05/11/2024 23:13:50 73.62,-166.17 55.36 05/11/2024 23:13:01 73.61,-166.27 55.35 3.14 49
12 05/12/2024 00:03:12 -73.67, 1.39 124.61 05/12/2024 00:02:28 -73.64, 1.43 124.64 3.19 44
13 05/12/2024 00:52:35 73.65, 169.08 55.37 05/12/2024 00:51:53 73.66, 169.12 55.38 2.17 42
14 05/12/2024 01:41:56 -73.65, -23.25 124.65 05/12/2024 01:41:21 -73.64, -23.29 124.65 1.35 35
15 05/12/2024 02:31:20 73.68, 144.33 55.38 05/12/2024 02:30:46 73.66, 144.40 55.36 3.04 34
16 05/12/2024 03:20:41 -73.68, -48.01 124.63 05/12/2024 03:20:13 -73.69, -47.90 124.62 3.63 28
17 05/12/2024 04:10:04 73.66, 119.69 55.35 05/12/2024 04:09:39 73.66, 119.68 55.35 0.34 25
18 05/12/2024 04:59:25 -73.66, -72.65 124.67 05/12/2024 04:59:07 -73.64, -72.74 124.69 3.50 18
19 05/12/2024 05:48:49 73.69, 94.93 55.36 05/12/2024 05:48:32 73.66, 94.96 55.33 3.52 17
20 05/12/2024 06:38:10 -73.69, -97.40 124.65 05/12/2024 06:37:59 -73.69, -97.35 124.65 1.69 11
21 05/12/2024 07:27:33 73.67, 70.29 55.32 05/12/2024 07:27:25 73.66, 70.23 55.31 2.27 8
22 05/12/2024 08:16:54 -73.67,-122.04 124.69 05/12/2024 08:16:52 -73.69,-122.07 124.67 2.30 2
23 05/12/2024 09:06:18 73.71, 45.54 55.34 05/12/2024 09:06:17 73.71, 45.62 55.35 2.81 1
24 05/12/2024 09:55:39 -73.70,-146.80 124.68 05/12/2024 09:55:45 -73.69,-146.79 124.69 1.59 6
25 05/12/2024 10:45:02 73.69, 20.89 55.30 05/12/2024 10:45:10 73.71, 20.90 55.33 2.77 8
26 05/12/2024 11:34:23 -73.69,-171.44 124.71 05/12/2024 11:34:38 -73.69,-171.51 124.71 2.42 15
27 05/12/2024 12:23:47 73.72, -3.86 55.32 05/12/2024 12:24:03 73.71, -3.82 55.31 1.59 16
28 05/12/2024 13:13:08 -73.72, 163.81 124.70 05/12/2024 13:13:30 -73.74, 163.88 124.67 3.28 22
29 05/12/2024 14:02:31 73.70, -28.50 55.28 05/12/2024 14:02:56 73.71, -28.55 55.29 1.61 25
30 05/12/2024 14:51:53 -73.75, 139.05 124.68 05/12/2024 14:52:23 -73.74, 139.15 124.69 3.51 30
31 05/12/2024 15:41:16 73.74, -53.26 55.30 05/12/2024 15:41:49 73.71, -53.27 55.27 2.91 33
32 05/12/2024 16:30:37 -73.73, 114.41 124.72 05/12/2024 16:31:16 -73.74, 114.43 124.71 0.95 39
33 05/12/2024 17:20:00 73.72, -77.90 55.26 05/12/2024 17:20:42 73.71, -77.99 55.26 2.91 42
34 05/12/2024 18:09:21 -73.71, 89.76 124.75 05/12/2024 18:10:09 -73.74, 89.71 124.73 3.03 48
35 05/12/2024 18:58:45 73.75,-102.66 55.28 05/12/2024 18:59:34 73.76,-102.60 55.29 2.11 49
36 05/12/2024 19:48:06 -73.75, 65.00 124.73 05/12/2024 19:49:02 -73.74, 64.98 124.74 1.54 56
37 05/12/2024 20:37:29 73.73,-127.31 55.25 05/12/2024 20:38:27 73.76,-127.33 55.27 2.80 58
38 05/12/2024 21:26:50 -73.73, 40.36 124.77 05/12/2024 21:27:55 -73.73, 40.26 124.76 3.14 65
39 05/12/2024 22:16:14 73.77,-152.07 55.26 05/12/2024 22:17:20 73.76,-152.05 55.26 1.35 66
40 05/12/2024 23:05:35 -73.77, 15.60 124.75 05/12/2024 23:06:47 -73.79, 15.65 124.73 2.74 72
41 05/12/2024 23:55:00 73.85,-176.95 55.33 05/12/2024 23:56:12 73.81,-176.66 55.29 10.26 72
42 05/13/2024 00:44:26 -74.11, -9.87 124.44 05/13/2024 00:45:35 -74.04, -8.50 124.47 42.45 69
43 05/13/2024 01:33:50 74.20, 157.57 55.65 05/13/2024 01:34:58 74.12, 159.32 55.60 53.60 68
44 05/13/2024 02:23:15 -74.40, -35.24 124.17 05/13/2024 02:24:21 -74.35, -32.51 124.17 82.19 66
45 05/13/2024 03:12:40 74.49, 132.19 55.92 05/13/2024 03:13:44 74.48, 135.44 55.96 96.75 64



Historial Predications of SNOs between AQUA and LANDSAT-8
